Wind_Speed
18 18 19 20 20 21 22 22 23 22 22 22 21 21 21 21 21 20 20 20 21 22 23 24 24 24 24 24 24 24 26 28 30 31 31 30 29 26 24 22 19 17 16 15 14 14 13 12 13 12 10 9 7 6 5 6 3 1 4 7 9 10 12 12 16 23 24 22 19 17 15 14 13 11 10 7 5 7 6 4 5 6 6 8 11 11 10 11
18 18 18 19 20 21 23 23 24 24 24 24 24 23 23 23 23 22 22 21 21 21 22 23 24 24 25 25 24 24 24 25 27 30 31 32 32 30 28 25 23 21 19 17 15 13 11 11 12 12 11 10 8 6 6 6 3 2 4 6 8 9 11 16 19 21 21 21 18 15 14 14 14 12 9 6 5 6 5 4 4 5 6 7 10 11 10 11
18 18 18 19 20 21 22 24 24 25 25 25 25 25 25 25 25 24 24 23 22 22 22 23 23 24 24 25 25 25 24 25 25 26 28 31 32 32 31 29 27 24 22 20 17 14 11 10 11 12 12 12 10 8 8 7 4 4 3 6 7 8 9 13 15 16 17 18 17 15 14 13 11 10 9 6 5 5 5 5 4 3 5 7 8 10 11 11
18 18 19 19 19 20 21 23 24 25 26 26 27 27 27 27 27 26 26 25 24 23 23 23 23 23 24 25 25 25 25 25 25 25 26 27 29 31 32 31 30 27 25 23 20 16 14 12 12 12 13 13 13 11 11 9 7 6 5 5 6 7 7 10 12 12 13 13 14 14 13 12 10 8 8 6 4 5 5 5 4 2 4 6 7 8 10 11
18 19 19 20 20 20 21 22 23 25 26 26 27 28 29 29 29 28 28 27 26 25 25 25 24 24 24 24 25 25 25 25 25 25 25 25 26 28 29 31 31 30 28 27 23 20 17 15 14 13 13 14 15 14 12 11 8 7 6 6 7 6 6 8 10 11 12 11 11 12 11 10 10 10 8 6 5 5 4 4 4 2 3 5 6 7 9 11
19 19 20 21 21 21 21 21 22 24 25 27 27 28 29 30 30 30 30 29 29 28 26 26 25 25 25 25 25 25 26 25 25 25 26 25 26 26 27 28 29 30 30 29 27 24 21 19 17 15 14 15 15 14 13 12 10 9 7 7 7 6 5 5 7 10 11 11 9 9 10 9 10 11 7 5 5 5 5 5 5 3 3 3 5 6 7 11
20 20 20 21 22 22 22 22 22 23 25 26 28 29 29 30 30 31 31 31 31 30 29 27 27 26 26 26 25 25 26 26 26 26 25 26 26 26 26 26 27 29 29 29 28 27 24 22 21 19 17 16 14 13 13 13 12 11 9 8 8 7 5 4 6 8 10 11 9 8 9 9 10 10 9 8 6 5 5 6 5 3 3 3 4 5 6 10
21 21 22 22 23 23 24 23 22 23 25 26 28 29 29 30 30 31 31 31 32 32 31 30 28 27 27 27 26 26 25 26 26 27 26 26 26 26 26 25 26 27 27 28 29 28 27 25 24 22 19 17 14 13 15 15 13 12 10 9 9 8 8 5 6 9 10 11 9 9 9 10 11 9 11 12 9 6 5 5 5 3 3 2 3 5 5 8
22 22 22 23 23 24 25 25 24 24 24 26 27 29 29 30 30 31 31 31 32 32 32 32 31 29 28 28 27 27 27 26 27 27 27 26 26 27 27 26 26 26 26 26 27 27 26 26 27 25 22 19 16 16 17 17 15 14 12 10 9 9 10 7 6 10 12 11 9 10 10 10 11 10 11 13 12 9 6 5 5 3 3 3 4 5 5 7
24 23 22 23 23 25 26 26 26 25 25 25 27 28 29 30 30 31 31 32 32 32 32 32 32 31 30 29 28 28 28 27 27 28 28 28 27 27 27 27 27 27 26 25 25 26 26 28 29 27 25 23 21 19 18 17 16 16 14 12 11 10 10 8 8 11 13 12 9 9 9 10 13 12 12 13 12 10 6 4 5 4 3 4 5 6 6 8
26 25 23 23 23 24 26 27 27 27 26 26 26 28 29 30 30 31 31 32 32 32 32 32 32 32 31 30 29 28 28 28 28 28 29 29 28 28 27 27 27 27 27 26 25 26 28 29 29 27 27 26 24 21 19 17 18 19 17 15 13 11 11 8 7 9 11 10 9 7 7 8 12 13 12 12 12 9 7 5 3 4 4 4 6 6 7 9
28 27 25 23 23 23 25 26 27 28 27 26 26 27 28 29 30 30 31 32 33 32 32 32 32 32 32 32 31 29 28 28 29 29 29 30 30 29 28 27 27 27 28 28 27 27 28 28 28 27 27 25 24 22 20 20 21 21 18 16 13 11 12 9 6 6 7 8 9 7 5 6 9 12 13 12 11 10 9 7 3 2 4 5 6 6 8 9
29 28 27 25 23 23 24 25 26 27 27 27 27 27 28 29 30 30 31 32 33 33 32 32 32 32 32 32 32 29 28 28 30 30 30 30 31 30 30 28 27 27 28 29 29 28 28 27 27 26 25 23 22 22 22 23 22 20 17 16 13 11 13 11 8 4 3 5 7 5 3 4 9 13 13 13 13 11 10 10 6 3 3 5 6 6 7 8
29 28 27 25 24 23 23 24 25 26 27 27 26 27 27 29 30 31 31 32 33 33 33 33 32 32 32 32 31 30 29 28 30 31 31 31 32 31 31 29 28 27 28 29 30 29 28 27 26 25 23 21 20 21 22 22 22 21 18 17 15 12 13 12 9 5 2 4 3 3 2 3 8 12 14 15 15 12 12 12 8 4 3 5 6 6 6 6
28 27 26 25 24 23 23 23 24 25 25 26 26 26 27 28 29 31 32 32 32 33 34 33 33 32 32 32 31 31 30 28 29 32 32 32 33 32 31 31 29 28 28 29 30 30 30 28 26 24 22 19 20 22 21 20 21 20 18 17 15 11 10 10 9 7 2 1 2 2 1 2 5 10 13 16 16 14 13 13 10 7 6 5 6 5 5 5
27 26 25 24 23 23 22 22 22 23 24 25 26 26 26 26 28 30 31 32 32 32 33 34 34 33 33 32 32 32 31 29 29 31 32 32 33 33 32 32 32 30 29 29 30 31 31 29 27 25 22 21 22 23 23 21 21 20 18 15 12 10 9 8 7 6 5 3 2 3 3 2 3 7 13 17 17 16 15 14 11 9 7 6 6 5 4 4
26 25 24 23 22 22 22 22 22 22 23 25 26 26 26 25 26 28 30 32 32 32 33 34 34 34 33 32 33 34 34 31 29 31 33 33 33 34 33 32 33 32 31 30 30 31 31 30 28 25 22 22 23 23 24 23 20 19 18 16 14 11 10 8 4 3 5 7 6 4 4 3 2 4 11 17 18 17 16 14 12 9 8 7 6 6 5 4
25 24 22 21 21 21 21 21 21 22 23 24 25 26 26 25 24 25 28 30 32 32 32 33 34 34 34 33 33 35 35 32 30 31 33 34 34 35 34 34 34 34 33 31 30 30 30 30 29 27 25 24 24 23 21 19 18 18 19 20 19 14 10 9 4 2 5 6 7 8 6 4 2 2 7 15 17 16 15 14 12 10 9 7 7 6 5 4
24 22 21 20 20 20 20 20 21 21 22 23 24 25 26 25 24 24 26 28 30 31 31 32 33 34 34 34 34 35 34 32 31 31 33 34 34 35 35 35 34 34 34 33 31 30 30 30 29 29 28 26 24 21 18 17 19 21 25 26 22 18 14 12 8 2 5 5 4 8 9 7 3 1 4 10 15 16 14 14 13 11 10 9 9 7 5 5
23 21 20 19 19 19 19 19 20 21 21 23 24 25 26 25 24 24 25 27 28 29 30 31 33 34 35 35 35 35 34 33 32 31 33 34 34 35 35 35 35 35 34 34 33 32 31 30 29 29 29 28 25 23 21 20 21 23 25 26 24 20 16 13 10 5 4 5 5 7 8 7 5 4 5 6 9 12 12 13 13 12 11 10 10 9 7 6
22 21 19 18 17 17 17 18 19 20 21 22 23 24 25 25 24 24 25 26 27 27 29 30 32 33 35 35 36 36 35 34 33 32 33 34 34 35 35 35 36 35 34 34 34 34 33 30 29 29 31 30 28 27 25 23 23 21 21 23 25 23 17 14 13 7 4 6 8 8 7 7 7 7 8 7 7 9 13 14 13 13 12 12 11 10 9 7
21 20 18 17 16 16 16 18 19 20 21 22 23 24 25 25 24 24 25 25 27 28 28 29 30 32 33 34 36 36 34 34 34 33 33 33 34 34 35 35 35 35 34 35 36 35 34 31 29 30 31 31 31 31 29 26 25 23 20 22 25 23 18 15 15 10 6 8 8 9 9 9 11 10 9 9 7 9 15 18 17 17 16 15 14 11 10 9
20 19 17 16 15 15 15 17 18 20 21 21 22 23 24 24 24 24 24 25 26 28 29 29 30 31 32 33 35 35 34 34 34 34 34 34 34 34 35 35 34 35 36 36 36 35 33 31 30 31 31 31 32 32 30 29 27 24 24 25 23 21 16 13 13 11 10 10 10 10 11 11 12 12 11 9 8 10 14 18 19 19 19 19 18 13 10 10
18 17 16 16 15 15 15 17 18 19 20 20 20 21 22 23 24 24 24 25 25 27 29 30 31 31 31 33 34 34 34 33 34 35 34 34 34 34 35 35 34 35 36 36 36 35 33 32 32 32 31 31 32 33 32 31 27 23 25 26 22 19 17 15 14 13 12 11 10 11 11 13 13 13 13 11 8 9 11 15 18 19 20 21 19 14 12 11
17 16 15 15 15 16 16 17 17 17 17 17 17 18 19 20 22 22 22 23 24 25 27 29 31 31 31 32 32 33 33 32 32 33 34 35 34 34 34 35 34 34 34 35 36 35 33 33 34 35 33 32 32 33 33 31 27 25 25 25 23 19 18 20 18 15 12 9 10 12 12 14 14 14 15 13 9 8 8 10 16 20 21 20 18 15 13 12
16 15 15 14 15 16 17 17 16 15 15 15 14 14 16 17 18 18 18 19 21 22 24 26 28 28 29 30 31 32 31 30 31 31 33 35 34 34 34 34 33 33 33 34 36 35 33 34 35 36 35 33 33 33 33 33 29 27 26 25 26 24 19 20 19 15 13 12 12 13 14 14 14 15 16 14 12 10 8 7 10 15 18 19 18 16 14 13
14 14 14 13 14 16 16 15 15 14 13 12 11 10 12 14 15 14 14 14 15 17 19 21 24 26 29 31 31 31 30 29 30 30 32 35 34 34 34 34 34 34 34 35 37 35 33 34 34 36 37 36 35 33 32 35 33 30 29 27 28 28 21 17 17 18 18 16 14 15 16 15 14 15 16 15 13 12 10 7 7 9 13 16 16 15 15 15
13 13 12 13 14 14 14 14 14 13 11 8 6 7 10 12 11 9 8 7 8 11 14 17 21 24 27 28 27 28 28 29 30 28 31 34 34 34 34 33 34 35 37 38 37 36 34 34 34 35 37 37 36 33 31 35 36 34 33 29 28 29 25 17 16 21 22 19 16 15 16 16 16 16 13 11 12 13 12 10 9 10 11 13 13 14 16 15
12 11 11 12 13 13 12 12 12 11 9 6 3 4 8 8 5 6 6 7 6 7 10 13 18 22 23 23 22 24 26 28 30 28 29 33 33 32 32 33 34 35 37 38 37 36 35 35 34 34 35 36 35 33 34 36 37 37 36 34 29 29 28 21 17 20 22 22 19 15 15 16 17 15 11 10 10 11 12 12 12 13 13 14 14 14 16 14
10 10 9 11 12 11 10 11 11 10 8 6 4 4 6 5 4 5 6 8 6 5 8 11 14 17 18 18 19 21 24 27 29 28 29 33 33 32 32 33 34 35 36 37 36 36 36 36 36 35 34 34 34 34 34 34 36 39 39 38 34 30 29 24 20 21 21 22 22 18 16 18 17 15 12 11 9 8 10 12 13 13 15 16 15 15 16 14
8 9 9 9 9 9 9 11 11 10 8 6 2 4 6 5 4 3 5 7 5 4 6 6 8 11 11 13 15 17 20 23 26 27 28 32 32 31 33 33 34 35 35 34 33 33 34 36 38 37 33 32 34 36 35 34 37 42 42 40 38 35 30 23 21 23 19 18 19 19 19 20 19 17 13 12 9 6 9 12 13 14 15 16 16 17 17 16
7 8 8 8 7 8 10 11 11 9 7 4 2 3 6 8 7 6 6 6 6 7 5 4 5 8 8 10 14 15 15 17 21 23 25 29 29 29 31 33 33 33 32 30 29 30 30 32 35 35 32 31 34 37 38 38 40 44 45 42 40 38 32 24 25 25 20 18 18 18 21 23 21 18 17 17 12 7 10 12 13 15 15 16 16 17 18 18
7 7 6 6 6 7 10 10 9 9 7 4 5 5 6 8 8 8 9 10 11 9 5 6 6 4 8 11 13 15 14 14 17 19 22 25 27 27 29 31 31 30 29 27 26 27 27 27 31 33 32 32 33 36 40 40 41 46 48 44 41 40 36 29 30 29 21 20 21 19 21 24 24 23 22 21 17 12 13 14 14 15 16 16 16 17 19 20
6 6 5 5 5 7 9 9 9 9 7 7 6 4 5 6 7 7 9 12 12 7 4 5 6 5 9 12 13 14 15 14 15 16 17 19 21 23 26 28 27 27 27 26 27 26 25 25 28 31 33 33 32 34 38 40 41 45 49 48 43 42 39 33 33 31 22 22 25 24 25 26 27 26 23 22 22 19 18 17 15 15 16 16 16 18 18 19
4 5 4 5 5 7 9 7 10 11 9 9 7 1 3 6 8 7 8 11 9 6 5 6 8 10 10 11 14 15 13 11 11 8 8 11 13 13 17 21 22 24 26 28 30 30 28 26 25 27 30 31 31 32 34 37 41 43 47 51 47 44 41 36 35 32 24 25 29 29 29 30 28 24 22 22 23 23 21 19 16 16 16 16 15 17 19 19
4 4 3 4 5 6 7 7 10 11 9 8 4 1 1 3 6 5 7 11 10 7 7 9 11 13 12 14 17 16 11 10 10 9 9 13 15 13 16 20 23 25 27 30 32 32 31 28 25 26 27 28 30 31 33 35 38 41 43 48 49 46 42 37 36 33 27 28 33 35 34 32 28 26 24 21 21 23 22 18 16 17 17 16 15 16 18 19
3 3 3 4 5 5 6 6 8 9 8 7 2 2 2 2 4 4 6 11 13 10 9 11 13 14 18 20 20 18 12 10 12 11 11 17 18 16 19 24 28 30 29 31 33 34 33 29 26 27 26 28 27 25 29 33 35 37 37 40 45 46 43 39 36 34 32 33 35 37 36 32 29 28 25 21 20 22 22 19 18 18 18 18 17 16 17 18
2 2 3 4 5 4 4 5 7 8 8 4 2 3 1 0 2 6 8 10 12 11 11 13 14 16 21 20 17 19 18 13 14 14 15 19 17 16 20 24 29 32 31 33 35 34 33 31 29 29 27 29 27 22 26 32 34 34 33 35 42 45 44 41 36 32 34 38 38 37 36 34 32 30 27 24 21 21 22 21 19 18 19 20 19 17 17 17
2 1 2 3 4 4 3 4 6 8 6 3 2 3 2 2 1 7 11 11 12 11 11 13 16 19 22 19 17 21 24 21 19 20 22 23 21 20 22 23 29 34 33 34 36 33 33 33 32 30 27 26 25 25 29 32 32 33 33 35 40 44 45 42 36 32 33 37 39 39 39 37 34 32 30 27 26 25 25 25 24 22 21 21 19 18 18 17
2 1 1 2 3 3 2 3 5 6 5 4 3 3 3 4 2 5 10 12 12 11 12 15 18 21 22 21 20 22 25 24 23 24 25 26 24 22 23 24 28 34 34 34 36 34 34 35 33 31 27 24 21 24 30 31 30 33 35 37 39 41 45 43 37 34 33 33 35 36 38 38 35 33 32 30 30 30 30 30 29 26 23 21 18 18 18 18
3 2 1 1 2 2 2 4 5 3 3 4 4 4 5 5 3 2 6 9 10 9 11 15 21 24 21 22 23 21 24 25 23 23 24 26 24 22 24 25 28 34 35 34 34 34 37 37 34 33 32 28 24 25 31 33 32 34 38 40 39 39 41 42 38 36 34 33 32 32 34 34 33 34 35 35 34 35 34 33 31 27 24 22 20 19 18 18
3 2 1 0 2 1 4 4 3 2 3 3 3 4 4 5 5 3 2 6 6 6 9 13 20 25 22 22 24 21 24 27 25 22 23 24 23 22 24 26 27 31 34 34 34 34 39 39 33 33 35 33 29 29 34 37 35 35 39 42 42 40 39 40 40 37 36 34 33 32 32 33 33 33 35 34 34 33 32 33 32 29 25 24 23 22 20 19
2 1 1 1 4 3 5 3 2 3 4 4 3 4 5 6 6 5 3 3 3 4 9 12 16 23 24 22 21 20 23 28 27 26 24 22 20 21 23 26 28 29 30 34 34 33 38 39 32 31 34 35 33 31 34 38 37 36 39 42 44 43 40 41 42 39 38 37 36 33 32 33 33 33 33 33 32 29 28 31 34 31 27 26 26 26 24 23
2 2 2 3 5 4 3 3 4 5 6 6 6 6 6 6 6 6 6 3 2 3 7 9 11 19 25 25 22 19 22 26 26 27 25 21 20 20 22 26 29 30 30 32 34 34 35 37 35 32 32 35 35 31 34 40 40 38 39 42 44 45 43 42 43 42 40 40 38 34 31 32 33 33 34 34 31 28 28 31 32 30 30 29 27 28 28 27
3 3 3 3 4 4 4 4 6 6 6 7 7 7 5 4 5 6 6 4 3 4 5 5 5 11 18 23 24 21 22 27 27 26 26 26 24 22 21 23 26 30 32 31 33 35 34 35 37 35 33 35 35 34 37 44 44 41 41 40 41 45 45 43 44 43 41 41 39 36 33 33 34 35 35 34 31 27 27 29 27 24 27 29 27 27 29 29
2 3 5 5 4 4 4 5 6 5 6 7 7 7 7 5 5 4 4 3 4 5 5 4 4 5 5 10 18 18 18 24 26 26 27 28 28 25 23 23 24 28 32 32 35 37 34 33 37 37 35 36 36 35 38 43 45 43 43 40 38 41 45 46 45 44 43 42 40 39 37 36 36 37 36 35 32 28 26 25 23 22 25 29 27 25 26 28
2 3 5 5 4 4 4 5 5 4 5 5 6 7 8 7 5 3 2 4 5 5 5 4 4 5 4 1 9 11 11 16 20 21 22 23 25 26 25 24 24 27 31 33 36 38 36 34 36 38 37 34 34 35 37 41 44 44 43 40 38 40 44 46 46 44 44 43 40 41 41 37 37 38 38 37 35 31 27 25 26 26 27 28 26 22 22 24
2 2 3 3 4 5 5 5 5 5 5 5 5 6 7 8 7 4 3 5 4 5 5 4 5 5 4 3 5 6 7 11 12 12 13 15 18 22 24 24 23 26 31 35 37 39 39 37 36 38 38 34 33 35 36 38 41 44 44 41 39 40 42 45 47 45 45 43 41 42 42 39 38 39 41 40 37 34 29 24 22 23 22 22 22 21 20 21
2 1 2 3 3 4 5 5 5 6 6 5 5 6 6 7 8 8 7 5 3 4 5 3 3 4 3 4 5 5 6 8 8 7 8 10 12 16 19 21 22 25 31 36 38 39 40 40 38 38 39 37 35 35 34 35 39 45 47 44 41 39 37 38 43 46 46 45 43 43 42 42 41 42 43 42 40 36 32 27 22 16 13 15 17 20 21 21
3 1 2 3 2 2 4 4 4 5 6 6 5 5 5 5 6 7 8 7 4 4 4 3 2 1 2 4 6 7 6 5 7 8 9 9 9 11 13 16 19 23 28 34 38 39 40 41 40 38 38 38 37 34 33 34 37 41 45 47 45 41 35 32 37 45 46 44 45 44 43 43 43 44 45 45 43 39 35 33 29 23 21 18 16 18 21 23
4 3 2 2 2 2 3 4 3 4 6 7 6 5 5 5 6 7 7 8 6 2 2 1 2 1 2 5 6 8 8 5 4 6 8 8 8 7 8 12 15 18 24 30 36 38 40 42 43 41 39 38 37 36 35 33 32 33 39 46 47 43 37 32 33 40 42 42 44 44 44 43 43 43 44 46 46 43 38 35 32 30 28 25 22 20 20 22
6 6 4 2 3 3 3 3 4 4 5 7 6 5 5 5 5 6 7 8 8 4 1 1 1 2 4 6 7 8 9 9 8 7 7 9 10 9 9 13 16 18 21 27 33 37 39 41 43 42 41 42 41 40 38 34 30 29 34 43 48 45 40 36 34 36 39 39 41 43 43 43 42 43 44 46 46 43 38 33 30 27 25 24 25 24 21 21
Wind_Direction
293 285 278 272 267 263 260 256 253 250 249 248 247 249 251 251 249 245 242 240 238 236 236 235 234 233 231 228 226 224 223 223 222 222 221 222 222 223 228 224 218 222 222 220 220 222 221 218 219 220 219 225 220 192 199 225 227 31 29 31 27 28 49 82 127 136 133 136 142 145 142 136 138 145 149 142 105 94 84 67 68 81 95 113 123 129 131 123
297 290 283 275 269 265 261 259 256 252 249 248 246 246 247 248 249 248 246 243 241 240 237 236 235 234 233 230 228 225 223 223 223 223 221 223 224 223 226 226 221 222 225 223 222 223 222 219 220 220 219 223 218 194 205 222 192 113 60 51 49 54 73 94 114 124 126 132 137 140 144 147 146 149 148 127 105 102 95 86 79 84 93 106 119 127 129 121
299 294 288 280 273 267 262 259 257 255 252 249 247 245 245 245 247 248 248 246 244 242 241 238 235 234 234 232 229 226 224 224 223 223 222 222 224 223 224 226 224 223 226 226 222 222 222 220 220 219 219 221 214 197 202 210 186 161 90 62 66 71 87 102 113 125 131 135 137 140 146 151 147 140 139 132 122 117 104 91 83 85 92 100 115 126 130 123
301 296 292 286 278 271 265 260 257 255 254 251 248 246 245 243 244 245 247 247 246 245 244 241 238 235 235 233 231 228 225 224 224 224 224 222 223 224 223 225 226 224 226 227 223 221 221 220 219 217 216 218 214 201 198 203 188 164 121 94 89 85 96 108 117 130 137 139 142 146 146 143 147 149 146 142 129 113 99 88 76 64 91 98 108 125 132 127
301 296 292 288 283 276 269 262 258 255 254 252 250 247 245 243 242 243 244 246 246 246 245 244 242 238 236 234 233 231 227 225 224 223 224 223 222 224 222 222 224 224 225 227 224 222 220 220 220 218 216 217 216 204 196 201 189 162 142 123 106 98 104 114 126 137 143 145 145 147 149 148 156 160 152 138 129 111 100 93 81 79 95 100 104 120 136 131
301 296 292 288 285 280 273 266 259 255 253 251 250 248 246 244 242 241 242 243 245 245 245 245 244 242 238 236 234 232 230 227 224 223 223 223 223 223 222 220 221 222 223 225 224 222 220 219 219 216 216 220 219 208 197 201 194 173 160 143 129 119 120 134 140 145 149 153 155 151 157 164 165 164 154 140 135 125 119 101 89 102 105 106 102 109 135 136
302 297 292 288 285 283 278 271 262 256 253 251 250 248 246 244 243 241 240 241 243 244 244 244 244 244 242 239 235 232 231 229 226 224 223 223 224 224 223 220 219 220 220 222 222 221 219 219 220 216 216 219 218 211 204 204 196 185 177 159 150 136 139 163 156 159 158 158 166 165 169 177 177 172 159 156 154 139 129 112 99 95 95 110 105 99 128 136
301 297 292 287 283 281 279 276 268 259 254 250 249 248 246 244 243 241 240 239 240 241 243 243 244 244 243 242 238 234 231 229 227 225 223 221 222 223 223 221 218 219 218 218 219 218 217 217 219 217 216 219 216 213 210 208 194 185 188 178 165 149 157 177 157 161 161 158 171 177 182 188 188 180 168 168 164 155 142 124 116 94 90 111 115 107 118 134
301 295 290 286 282 279 277 275 272 265 257 252 249 248 246 244 242 241 240 238 238 239 240 241 242 242 243 242 240 237 232 229 228 226 224 221 221 222 222 220 219 219 217 217 217 216 216 216 219 216 213 215 215 213 212 212 200 186 189 185 176 166 170 180 167 167 160 156 172 186 188 193 192 184 180 175 159 162 174 148 132 111 111 121 123 112 112 132
301 296 290 284 280 276 274 272 271 268 261 255 251 248 247 245 242 241 240 238 237 236 237 238 240 241 242 242 241 239 234 229 228 227 225 222 221 221 221 219 219 219 217 216 214 213 214 216 219 218 214 211 209 211 211 214 209 196 193 187 184 180 175 169 158 160 155 153 165 183 190 192 190 184 183 176 159 172 197 167 136 123 123 119 122 114 110 125
302 297 291 285 279 275 272 271 269 268 264 259 253 249 247 246 243 241 239 238 236 235 234 234 236 238 240 241 240 239 236 231 227 226 225 223 221 220 220 219 218 218 217 215 212 212 213 216 218 217 216 213 210 210 209 214 215 207 197 190 192 183 176 176 154 145 144 153 162 170 187 193 194 189 184 178 169 179 192 182 152 133 133 116 120 117 112 120
302 298 293 287 281 276 272 270 268 267 266 262 256 251 247 246 245 242 239 237 236 235 233 232 233 235 238 239 239 238 237 234 229 226 225 224 221 219 219 218 218 217 216 214 212 212 213 215 216 216 216 214 212 210 209 213 219 216 200 189 194 185 183 188 163 142 129 149 167 162 173 194 199 192 184 183 179 178 179 188 204 155 138 126 128 124 115 121
300 297 294 290 285 279 273 270 268 267 266 264 259 254 248 245 244 243 240 237 235 234 233 231 230 232 235 238 238 237 236 234 231 226 224 225 223 219 219 217 217 217 216 214 213 214 214 214 213 215 215 212 211 211 211 213 217 216 202 188 187 186 196 194 177 170 96 117 158 157 166 207 207 192 181 182 184 183 183 186 196 197 161 143 139 133 126 128
299 297 294 291 287 281 276 272 269 267 267 265 262 257 250 245 243 243 241 238 234 233 232 231 230 229 232 234 235 235 233 232 232 229 224 224 224 220 219 218 216 216 216 214 214 215 216 216 212 212 212 205 203 209 212 216 219 216 205 191 186 191 204 206 205 211 105 86 122 142 174 220 212 198 183 182 185 187 187 184 187 213 203 161 147 138 131 130
298 296 294 291 287 283 278 274 271 269 267 266 264 260 254 248 243 241 241 239 235 232 231 231 230 229 229 231 232 233 232 229 230 232 226 223 224 222 218 217 216 215 215 214 213 214 215 216 214 210 206 197 196 204 206 213 220 219 212 202 195 197 210 221 229 228 212 68 91 112 185 229 214 199 189 187 188 190 189 184 188 216 220 180 156 144 134 130
299 296 294 291 288 284 280 277 273 271 269 268 266 263 258 251 245 241 239 239 237 233 230 230 231 229 229 228 227 229 230 226 224 230 229 224 223 223 219 217 216 215 215 215 213 214 214 214 215 211 202 194 195 199 198 203 213 214 213 210 201 198 211 223 231 232 238 245 181 133 168 202 219 202 202 200 193 193 193 187 190 211 218 190 164 153 146 147
300 297 295 292 289 285 281 278 275 271 269 268 267 265 261 255 249 243 240 238 237 234 231 230 230 230 229 226 225 227 229 226 222 226 229 225 223 223 220 217 216 215 216 215 214 214 214 212 213 211 203 197 196 197 197 199 205 208 206 202 195 193 201 205 201 208 221 229 228 210 179 185 252 236 214 204 194 193 194 187 188 204 216 199 174 165 164 168
301 299 296 293 289 285 281 278 276 272 269 267 266 265 263 258 252 245 242 239 237 234 232 230 229 230 229 226 225 226 227 227 224 223 227 226 223 222 220 217 216 215 216 216 215 214 214 213 211 207 204 201 197 194 195 196 200 204 201 195 188 179 180 179 164 196 217 214 224 230 216 194 255 279 197 193 190 190 193 191 186 194 207 198 183 179 180 187
303 300 297 294 290 286 282 278 276 273 270 267 265 264 263 260 253 246 242 239 237 235 233 231 228 228 228 226 225 225 226 227 224 223 225 226 225 223 221 219 217 215 215 215 216 215 214 213 211 206 203 201 196 188 185 189 196 201 202 198 186 173 172 165 144 167 237 231 230 236 233 218 222 261 177 188 192 189 192 197 189 187 198 196 189 188 192 198
304 301 298 293 290 287 283 280 278 276 273 270 267 264 262 259 254 247 241 238 236 235 235 232 229 227 226 225 224 224 225 225 223 222 224 225 224 224 222 220 218 216 215 215 215 215 214 212 210 208 205 200 194 188 186 187 195 205 209 204 191 176 167 160 150 155 219 241 245 238 234 225 218 227 213 201 202 201 204 207 195 187 197 200 191 188 192 197
306 302 297 292 289 286 284 282 280 278 275 272 269 265 261 258 255 249 242 238 235 234 234 233 231 228 226 225 223 223 225 224 223 221 222 224 223 223 223 221 219 217 215 215 215 215 214 212 208 208 208 202 194 192 193 191 191 202 212 212 202 185 167 166 169 162 201 232 239 233 229 223 213 220 228 221 214 214 216 215 202 192 200 204 198 189 183 182
305 300 296 292 288 286 286 284 284 282 278 274 270 266 262 258 254 250 244 238 233 232 233 232 231 229 227 225 224 224 225 224 223 221 221 222 222 222 223 221 219 216 215 215 216 215 214 211 208 208 208 203 197 195 196 196 193 193 202 214 211 195 181 182 178 168 200 227 231 228 225 224 215 211 221 225 225 215 213 214 206 198 200 200 198 190 178 172
303 298 294 292 290 290 289 289 289 287 283 278 272 267 263 258 253 249 244 238 232 230 230 230 229 228 226 225 223 224 225 224 223 222 221 221 220 220 222 222 219 217 216 216 216 216 213 210 209 210 209 204 200 197 197 201 199 189 192 206 208 197 188 185 184 183 195 208 215 220 224 228 221 213 212 215 220 212 210 215 209 202 201 197 193 187 178 174
299 296 294 294 295 295 295 296 296 292 288 282 275 269 263 258 253 247 242 237 232 229 228 228 228 227 226 224 223 224 225 224 223 223 221 221 221 219 220 221 219 218 217 217 217 215 211 209 209 211 209 205 202 199 198 201 199 189 191 199 198 193 190 184 189 199 197 199 206 207 215 226 225 219 217 214 212 204 207 218 212 205 202 198 194 188 183 179
298 296 295 297 300 302 303 303 301 298 292 285 278 271 264 258 253 246 240 236 232 228 226 227 227 226 226 225 224 225 224 224 224 223 221 221 220 219 219 220 218 218 217 216 217 215 211 208 208 210 208 206 203 200 199 199 195 189 190 195 189 186 191 190 190 193 194 203 206 197 199 214 220 218 217 216 213 203 204 215 209 205 204 199 195 192 191 185
299 298 298 303 306 309 310 309 308 307 302 294 283 271 262 257 252 245 239 234 230 227 224 224 226 225 225 225 225 225 224 222 220 219 220 220 219 218 218 218 217 216 215 215 216 214 211 210 209 210 209 206 203 200 199 196 192 186 185 190 192 189 188 191 189 178 180 194 194 192 196 200 207 214 215 213 213 212 209 201 196 203 203 197 195 196 198 194
300 300 302 307 311 314 314 315 317 316 313 305 288 274 261 252 248 242 235 232 228 224 219 217 220 222 224 225 225 224 222 221 219 217 218 218 218 218 217 217 216 215 214 215 216 213 210 211 210 211 210 208 203 199 197 196 191 182 182 189 197 200 200 196 186 170 174 189 188 192 199 197 196 206 211 211 214 219 217 201 190 199 197 194 198 200 200 198
300 303 307 313 317 317 316 320 323 321 326 318 287 271 256 245 241 228 214 206 209 216 212 210 213 217 222 226 226 225 223 221 216 213 215 217 217 216 215 216 216 216 216 216 217 213 209 210 211 211 212 210 205 198 194 198 194 181 180 190 197 203 207 202 182 174 181 190 192 198 201 197 197 199 202 206 213 219 218 206 193 199 202 201 207 203 197 198
302 306 313 318 318 318 319 326 328 330 345 346 309 265 251 243 215 181 166 155 169 201 199 199 207 212 217 221 223 223 222 222 218 209 210 214 215 214 213 213 215 217 219 220 218 214 210 208 209 211 212 211 207 200 195 197 193 180 179 190 194 199 206 203 188 186 195 194 189 196 203 200 199 192 189 197 204 210 211 205 196 198 204 204 204 200 197 206
306 311 319 321 318 321 327 332 334 341 4 14 339 257 236 222 176 154 148 148 149 167 171 182 203 208 212 214 215 217 216 220 220 211 207 212 213 212 211 212 214 217 220 221 220 217 212 208 206 208 211 210 205 202 199 196 191 183 183 191 193 196 202 204 198 195 203 202 193 194 204 206 200 187 184 192 191 191 194 198 201 202 205 205 205 204 206 216
311 315 320 321 319 326 333 340 343 352 21 37 340 236 198 166 154 143 140 140 114 105 142 175 210 208 207 210 210 212 213 216 219 211 206 210 212 210 210 211 212 215 218 220 220 218 215 211 207 204 206 208 203 200 197 193 190 187 187 191 193 195 194 199 206 198 198 210 203 199 208 213 205 189 184 185 176 185 192 191 199 202 206 210 210 211 214 215
317 314 320 323 327 341 348 350 352 5 33 72 134 171 162 150 144 138 141 137 93 67 78 123 188 202 195 201 208 206 205 212 217 210 202 206 210 209 211 212 210 211 214 216 216 217 215 214 211 203 200 205 203 201 198 194 191 187 188 191 193 195 192 195 208 204 198 204 200 199 213 218 210 195 192 188 179 197 206 198 202 204 207 212 211 212 215 212
315 313 322 328 338 355 357 354 3 25 47 97 120 129 152 156 151 142 142 141 115 87 84 117 127 170 179 186 199 195 190 201 209 205 199 202 206 207 210 213 210 207 208 207 206 209 210 211 211 204 200 202 201 202 202 198 193 189 190 193 195 197 196 195 206 211 204 193 190 200 215 220 215 204 199 192 185 201 212 207 208 207 209 212 209 210 212 211
318 316 326 335 346 7 0 358 25 42 61 80 81 122 153 146 145 144 148 150 141 130 148 137 106 115 155 175 188 184 182 193 201 200 197 197 202 207 210 212 207 202 202 197 192 193 194 199 207 207 204 203 200 201 203 202 198 193 193 196 197 200 201 198 205 211 200 182 190 204 213 221 221 210 204 201 196 201 208 207 207 207 210 213 212 212 212 212
329 318 327 338 350 15 1 5 45 46 54 68 58 85 137 125 138 155 170 168 170 175 149 122 115 116 130 165 177 174 175 186 192 190 184 186 192 196 202 205 199 196 198 192 186 187 187 191 199 205 205 203 201 200 199 201 203 200 197 197 198 201 203 203 206 208 190 180 196 207 211 219 220 211 209 210 208 206 206 204 206 210 211 211 212 214 216 216
346 320 329 340 348 17 2 14 56 54 51 66 75 167 146 133 147 168 186 172 174 179 138 117 125 125 130 150 155 153 165 185 170 132 125 160 166 159 173 186 186 189 194 190 186 186 186 188 193 200 203 204 204 203 198 198 204 206 203 200 199 201 204 206 209 209 193 186 200 208 211 213 214 212 212 213 218 218 213 206 206 214 214 211 211 213 218 224
3 320 329 344 350 13 10 21 58 63 51 54 60 235 231 192 170 180 181 170 173 177 155 138 142 143 141 145 148 143 151 179 168 142 142 162 166 164 171 177 178 185 193 191 188 187 186 188 193 197 200 203 204 204 203 204 206 208 207 203 201 202 206 208 210 210 201 196 203 209 210 211 212 215 216 220 224 219 214 210 208 213 215 212 214 217 224 230
20 319 329 348 348 354 13 31 50 54 44 38 3 324 296 164 200 197 190 189 191 184 169 161 164 161 148 150 160 155 153 172 180 183 187 181 181 183 178 177 178 184 192 193 191 192 189 188 192 195 201 206 202 193 197 206 209 208 204 201 201 201 204 207 206 205 202 202 207 211 213 215 215 214 217 222 219 204 203 209 209 212 214 212 215 219 223 227
24 13 339 342 329 326 356 41 54 51 29 350 345 351 349 20 337 202 197 204 208 199 186 178 179 172 157 161 183 176 170 182 191 197 199 191 189 186 181 181 181 182 189 191 191 191 188 187 192 196 200 208 205 194 193 201 207 206 199 198 199 200 203 205 202 200 201 204 211 214 216 220 219 220 223 224 219 214 215 214 211 213 212 208 213 217 218 221
38 81 340 319 295 295 336 42 57 54 12 339 340 349 2 14 355 217 209 206 209 216 205 188 186 183 171 177 195 189 179 190 203 202 197 192 188 185 184 184 182 184 189 190 190 188 184 186 192 195 196 201 199 194 196 200 201 199 195 195 197 198 202 205 201 198 198 204 212 216 219 223 224 225 227 226 225 231 232 222 213 210 208 205 209 215 217 221
61 99 95 309 274 279 43 42 39 40 356 337 338 356 21 22 7 252 234 217 208 215 211 194 189 190 188 191 201 195 182 193 207 202 194 192 191 191 190 186 183 188 191 190 190 187 182 185 194 197 196 195 189 185 193 199 198 194 192 193 196 198 202 203 198 196 198 203 211 214 216 222 223 222 225 226 226 229 231 226 217 208 204 205 208 211 215 220
51 77 83 58 275 339 63 42 6 5 357 347 347 359 18 21 20 22 277 237 215 201 210 207 195 192 196 200 205 202 193 197 204 197 189 193 198 200 195 190 189 192 192 190 190 187 183 186 196 201 198 197 192 185 188 193 194 192 191 193 196 198 202 203 199 198 199 203 209 212 213 218 220 220 222 225 227 229 229 227 220 211 205 206 210 213 216 220
21 351 7 338 299 347 64 54 15 30 14 9 13 351 356 15 20 19 356 276 230 193 205 216 204 194 196 202 206 207 203 201 202 199 194 197 207 207 197 194 197 197 194 193 193 190 188 189 195 200 200 200 197 190 188 191 193 193 192 193 195 195 199 202 200 199 200 203 208 212 212 215 220 221 221 223 227 231 230 224 219 215 210 210 216 221 224 227
338 314 322 320 307 332 46 49 36 36 18 16 19 354 343 2 16 9 357 333 247 211 203 216 219 202 197 202 210 214 210 205 202 203 206 212 217 212 202 200 201 200 197 197 197 194 191 192 194 197 200 199 197 195 193 194 196 196 195 194 194 195 197 199 198 199 201 204 209 213 213 214 218 222 224 225 227 230 230 223 218 218 216 216 222 226 228 231
339 311 308 317 325 339 359 22 30 25 15 16 14 5 357 348 352 2 357 335 280 243 209 200 220 205 198 205 213 215 211 206 204 206 213 222 223 217 211 208 206 203 199 197 199 198 195 195 195 197 202 199 196 194 194 196 197 198 198 196 196 197 198 198 198 199 202 204 207 213 216 215 216 221 226 227 228 231 227 217 214 218 218 215 217 223 225 228
348 317 323 337 341 333 342 18 27 12 7 14 8 9 19 1 339 351 353 323 298 279 247 214 209 220 225 214 208 207 206 205 206 208 214 221 223 218 216 216 214 207 198 195 198 199 199 198 196 199 204 202 198 195 194 198 200 200 200 198 197 200 201 200 200 201 202 204 207 212 215 217 217 221 226 228 228 228 225 225 229 226 215 208 210 219 224 226
329 332 343 350 336 319 345 21 22 358 350 1 0 4 15 14 4 360 318 304 324 327 296 274 259 261 297 228 188 194 200 200 201 204 208 217 219 213 214 219 218 208 198 195 197 199 201 200 198 201 203 199 197 196 196 199 202 203 203 199 197 200 202 202 202 203 203 204 209 212 213 216 218 221 226 228 227 227 230 238 235 219 206 203 205 216 227 230
297 326 348 356 339 338 358 6 359 347 336 336 348 360 9 12 11 13 335 308 323 334 314 306 302 276 255 211 187 185 193 198 199 199 203 214 217 211 210 214 213 207 200 197 197 199 202 200 197 198 200 196 193 194 196 199 204 206 205 202 199 199 201 203 203 204 205 206 211 212 211 215 219 222 226 229 229 229 230 225 210 198 198 202 203 211 225 234
266 317 337 338 340 348 349 344 349 350 337 329 337 349 0 2 0 6 3 340 301 298 317 344 332 289 232 208 211 196 193 202 203 204 204 207 217 219 216 214 209 203 199 199 199 200 203 203 198 193 191 190 189 190 192 194 200 206 206 206 204 201 202 205 205 204 205 208 211 211 210 215 219 221 225 229 230 229 225 214 202 203 218 222 220 222 227 233
250 268 300 307 326 339 329 338 1 351 333 335 337 332 341 349 348 358 4 359 332 288 314 16 36 323 207 198 210 205 203 202 201 212 214 204 209 221 226 224 215 203 198 200 202 203 204 206 204 196 188 185 185 188 190 191 195 202 206 208 207 204 204 209 207 205 206 209 211 212 212 215 220 223 225 228 230 230 225 221 228 243 253 251 245 238 234 235
236 233 252 291 314 330 339 347 352 333 327 338 342 331 333 338 339 350 1 5 4 326 289 354 58 85 173 202 213 211 210 205 193 213 220 208 204 213 221 225 220 207 201 202 203 205 207 208 209 204 195 191 189 189 191 193 196 200 204 207 207 206 208 212 210 208 209 211 212 214 215 216 220 225 226 228 231 231 228 229 238 250 252 250 246 243 241 239
227 230 235 258 287 317 354 343 329 335 336 335 339 341 341 340 341 347 353 2 12 19 292 233 129 119 164 195 208 208 209 209 204 206 210 202 198 197 195 203 210 208 205 204 205 207 209 211 212 208 201 197 195 192 192 195 199 204 205 205 206 208 213 217 215 213 214 214 213 215 218 220 222 226 228 229 231 232 231 231 236 241 245 246 245 244 243 240
Height
5866 5866 5866 5866 5866 5866 5867 5868 5868 5869 5869 5869 5870 5870 5870 5870 5871 5871 5872 5872 5873 5874 5875 5876 5877 5878 5879 5880 5882 5883 5884 5885 5886 5888 5890 5890 5891 5893 5894 5896 5898 5898 5899 5900 5901 5903 5904 5905 5906 5907 5908 5908 5909 5909 5909 5909 5909 5909 5908 5907 5907 5907 5905 5902 5902 5904 5906 5908 5910 5910 5912 5914 5915 5915 5916 5917 5917 5918 5919 5919 5919 5919 5920 5921 5921 5922 5923 5924
5864 5863 5863 5863 5863 5863 5863 5864 5865 5866 5866 5867 5867 5868 5868 5868 5868 5869 5869 5870 5871 5871 5872 5873 5875 5876 5877 5878 5879 5881 5882 5883 5884 5885 5887 5888 5889 5891 5892 5894 5896 5897 5898 5899 5901 5902 5903 5905 5905 5906 5907 5907 5908 5909 5909 5909 5909 5909 5909 5908 5908 5908 5907 5906 5906 5907 5908 5909 5911 5911 5913 5915 5916 5916 5917 5917 5918 5919 5919 5919 5919 5919 5920 5921 5922 5923 5924 5924
5861 5861 5860 5860 5860 5860 5860 5860 5861 5862 5863 5863 5864 5865 5865 5866 5866 5866 5867 5867 5868 5869 5870 5871 5872 5873 5875 5876 5877 5878 5880 5881 5882 5883 5884 5885 5887 5889 5891 5892 5894 5896 5896 5898 5900 5902 5903 5904 5905 5906 5906 5907 5908 5908 5909 5909 5909 5909 5909 5909 5909 5909 5909 5908 5908 5909 5910 5911 5912 5913 5914 5915 5915 5915 5916 5917 5918 5919 5919 5919 5919 5919 5921 5921 5922 5923 5924 5925
5859 5858 5858 5857 5857 5856 5856 5857 5857 5858 5859 5860 5860 5861 5862 5862 5863 5864 5864 5865 5865 5866 5867 5868 5869 5871 5872 5873 5875 5876 5878 5879 5880 5881 5882 5883 5885 5886 5889 5890 5892 5894 5895 5896 5899 5901 5902 5903 5904 5905 5906 5906 5907 5907 5908 5908 5909 5909 5909 5910 5910 5910 5910 5910 5909 5910 5910 5911 5912 5913 5913 5914 5915 5915 5916 5917 5918 5919 5919 5919 5920 5920 5921 5922 5923 5924 5924 5925
5857 5856 5855 5854 5854 5853 5853 5853 5854 5854 5855 5856 5856 5857 5858 5859 5860 5861 5861 5862 5863 5863 5864 5865 5867 5868 5869 5871 5872 5874 5875 5876 5877 5879 5880 5881 5883 5884 5886 5888 5890 5892 5893 5895 5898 5900 5901 5902 5903 5903 5904 5905 5905 5906 5908 5908 5909 5909 5909 5910 5910 5911 5911 5911 5911 5910 5910 5911 5911 5912 5912 5913 5914 5916 5916 5917 5918 5919 5919 5920 5920 5921 5921 5922 5923 5925 5925 5925
5854 5853 5853 5852 5851 5851 5850 5850 5850 5851 5851 5851 5852 5853 5854 5855 5856 5857 5858 5859 5860 5860 5861 5863 5864 5865 5866 5868 5870 5871 5872 5874 5875 5876 5877 5879 5880 5882 5884 5886 5887 5889 5891 5893 5895 5898 5899 5900 5901 5902 5903 5903 5905 5906 5908 5908 5909 5909 5909 5909 5910 5911 5911 5912 5912 5911 5910 5910 5911 5912 5912 5913 5914 5915 5916 5916 5918 5918 5919 5920 5921 5922 5922 5922 5923 5925 5926 5926
5851 5850 5850 5849 5849 5848 5847 5847 5847 5847 5847 5847 5848 5848 5849 5851 5852 5853 5854 5855 5856 5857 5858 5860 5861 5862 5864 5865 5867 5868 5870 5871 5873 5874 5875 5877 5878 5880 5881 5884 5885 5887 5888 5890 5893 5895 5897 5898 5899 5900 5901 5903 5905 5906 5907 5908 5908 5909 5908 5908 5909 5911 5911 5912 5912 5911 5911 5911 5912 5912 5912 5913 5914 5915 5916 5917 5917 5918 5919 5920 5921 5922 5923 5922 5923 5924 5926 5926
5848 5847 5846 5846 5845 5845 5844 5844 5844 5843 5843 5843 5844 5844 5845 5846 5848 5849 5850 5851 5853 5854 5855 5857 5858 5859 5861 5862 5864 5865 5867 5869 5870 5871 5873 5874 5876 5877 5879 5882 5883 5884 5886 5888 5890 5893 5895 5896 5897 5899 5901 5903 5905 5906 5906 5907 5907 5908 5908 5908 5909 5910 5911 5911 5911 5911 5911 5911 5912 5913 5913 5913 5914 5915 5916 5917 5917 5918 5919 5920 5922 5923 5924 5924 5923 5924 5926 5926
5846 5844 5843 5843 5842 5841 5841 5840 5840 5840 5840 5840 5840 5840 5841 5842 5844 5845 5846 5847 5848 5850 5852 5853 5855 5856 5857 5859 5861 5862 5864 5866 5867 5868 5870 5872 5874 5875 5877 5879 5881 5882 5884 5886 5888 5891 5893 5894 5894 5897 5900 5902 5903 5903 5904 5905 5907 5907 5908 5907 5908 5909 5911 5911 5911 5912 5911 5910 5912 5913 5912 5912 5913 5915 5916 5917 5918 5920 5920 5921 5922 5923 5924 5924 5925 5925 5926 5927
5842 5841 5840 5839 5838 5838 5837 5837 5836 5836 5836 5836 5836 5836 5836 5837 5839 5841 5842 5843 5844 5846 5848 5850 5851 5853 5854 5856 5857 5859 5861 5863 5864 5865 5867 5869 5871 5873 5875 5877 5878 5880 5882 5884 5887 5889 5890 5891 5892 5895 5898 5900 5901 5901 5902 5904 5905 5906 5907 5906 5907 5909 5912 5912 5911 5912 5910 5909 5911 5911 5911 5911 5913 5916 5917 5918 5919 5920 5921 5922 5922 5923 5924 5925 5925 5926 5926 5927
5838 5837 5836 5836 5835 5834 5833 5833 5833 5832 5832 5832 5832 5832 5833 5833 5834 5836 5838 5839 5840 5842 5844 5846 5848 5849 5851 5852 5854 5856 5858 5860 5861 5862 5864 5866 5868 5870 5872 5874 5876 5878 5880 5882 5884 5886 5887 5888 5890 5894 5896 5898 5900 5901 5902 5903 5903 5904 5906 5905 5906 5909 5912 5912 5912 5911 5909 5908 5910 5910 5910 5911 5913 5915 5917 5918 5919 5920 5921 5922 5923 5923 5924 5925 5926 5926 5927 5927
5834 5833 5832 5831 5831 5830 5830 5829 5829 5829 5829 5828 5828 5828 5829 5830 5830 5832 5833 5835 5836 5838 5840 5842 5844 5845 5847 5848 5850 5853 5855 5856 5858 5860 5861 5863 5865 5867 5869 5872 5874 5876 5878 5880 5882 5883 5884 5886 5889 5891 5894 5897 5900 5901 5902 5902 5901 5902 5904 5905 5906 5908 5910 5910 5910 5911 5909 5909 5910 5910 5910 5910 5912 5915 5916 5917 5918 5920 5920 5921 5923 5924 5924 5925 5926 5927 5927 5928
5830 5828 5828 5827 5827 5826 5825 5825 5825 5824 5824 5824 5824 5824 5825 5826 5826 5827 5828 5830 5832 5834 5836 5838 5840 5842 5843 5845 5847 5850 5852 5853 5854 5856 5858 5860 5862 5864 5867 5869 5871 5873 5875 5878 5879 5881 5882 5884 5886 5889 5892 5896 5899 5901 5901 5900 5900 5901 5903 5905 5905 5907 5909 5909 5909 5911 5911 5910 5910 5910 5910 5910 5912 5914 5915 5916 5918 5919 5920 5921 5923 5924 5924 5925 5926 5927 5928 5929
5826 5825 5823 5823 5822 5822 5821 5821 5820 5820 5820 5820 5820 5820 5820 5821 5822 5823 5824 5826 5828 5830 5832 5834 5836 5838 5839 5841 5843 5846 5848 5849 5850 5853 5855 5857 5859 5862 5864 5866 5869 5871 5873 5875 5877 5879 5881 5882 5885 5887 5890 5895 5898 5898 5899 5899 5899 5901 5903 5905 5906 5907 5908 5909 5909 5910 5911 5910 5910 5910 5910 5910 5911 5913 5914 5915 5916 5918 5919 5920 5922 5923 5924 5925 5926 5927 5928 5929
5823 5821 5820 5819 5818 5818 5817 5817 5816 5816 5816 5816 5816 5816 5816 5817 5818 5819 5820 5822 5824 5826 5828 5830 5832 5833 5835 5837 5839 5842 5844 5847 5848 5849 5852 5855 5856 5859 5861 5864 5866 5868 5870 5872 5874 5876 5878 5881 5883 5885 5888 5893 5894 5895 5897 5898 5898 5901 5903 5905 5906 5907 5907 5908 5909 5909 5909 5910 5911 5910 5910 5910 5911 5913 5914 5915 5916 5917 5918 5920 5922 5923 5924 5925 5926 5927 5928 5929
5820 5818 5817 5815 5814 5814 5813 5813 5812 5812 5812 5811 5811 5811 5812 5813 5814 5815 5816 5818 5820 5822 5824 5826 5827 5829 5831 5832 5835 5837 5839 5842 5844 5845 5848 5851 5853 5855 5858 5861 5863 5865 5867 5869 5872 5874 5876 5879 5882 5884 5887 5890 5891 5892 5894 5896 5896 5900 5903 5905 5906 5906 5906 5907 5908 5908 5909 5910 5910 5910 5911 5910 5911 5912 5914 5915 5916 5917 5918 5920 5921 5923 5924 5925 5925 5926 5927 5929
5816 5815 5813 5812 5811 5810 5810 5809 5809 5808 5808 5807 5807 5807 5808 5808 5810 5811 5813 5814 5816 5818 5820 5821 5823 5825 5826 5829 5831 5833 5834 5838 5841 5842 5844 5847 5850 5852 5855 5858 5860 5862 5865 5867 5869 5871 5874 5876 5880 5883 5886 5887 5889 5890 5892 5894 5895 5898 5901 5903 5904 5904 5904 5905 5906 5907 5908 5909 5909 5910 5911 5910 5911 5912 5913 5914 5916 5917 5918 5919 5921 5923 5925 5925 5925 5926 5927 5929
5813 5811 5810 5809 5808 5807 5806 5806 5805 5804 5804 5803 5803 5803 5804 5805 5806 5807 5809 5810 5812 5814 5815 5817 5819 5821 5822 5825 5827 5828 5832 5835 5838 5840 5841 5843 5846 5849 5852 5854 5857 5859 5862 5864 5867 5869 5872 5874 5877 5880 5883 5885 5887 5889 5892 5894 5895 5896 5897 5899 5900 5900 5901 5903 5905 5906 5907 5907 5908 5909 5910 5910 5911 5911 5913 5914 5915 5916 5918 5919 5920 5922 5924 5925 5926 5926 5927 5928
5810 5808 5807 5806 5805 5804 5803 5802 5801 5801 5800 5800 5799 5800 5800 5801 5802 5803 5804 5805 5807 5810 5811 5813 5815 5816 5818 5822 5824 5826 5829 5832 5834 5836 5838 5840 5843 5846 5848 5851 5854 5856 5859 5862 5864 5867 5870 5872 5875 5878 5880 5883 5887 5890 5891 5892 5892 5892 5893 5894 5896 5897 5899 5901 5904 5905 5906 5907 5907 5908 5910 5911 5911 5912 5913 5914 5915 5916 5917 5919 5920 5921 5924 5925 5925 5926 5927 5928
5807 5805 5804 5802 5801 5801 5800 5799 5798 5797 5796 5796 5796 5796 5796 5797 5798 5799 5800 5801 5803 5806 5807 5808 5810 5812 5815 5818 5820 5823 5825 5827 5831 5833 5835 5837 5839 5842 5845 5848 5851 5853 5856 5859 5861 5864 5867 5870 5873 5876 5879 5882 5886 5889 5888 5889 5890 5890 5892 5895 5896 5897 5899 5901 5902 5904 5905 5907 5908 5908 5910 5911 5911 5912 5913 5914 5916 5916 5917 5919 5920 5921 5923 5925 5925 5926 5927 5928
5804 5802 5801 5800 5798 5798 5797 5796 5795 5794 5793 5792 5792 5792 5792 5793 5794 5795 5796 5798 5800 5802 5803 5804 5806 5809 5811 5814 5817 5819 5821 5824 5827 5829 5831 5833 5836 5839 5841 5844 5848 5851 5854 5856 5858 5861 5864 5868 5872 5874 5876 5879 5883 5885 5885 5886 5888 5889 5892 5895 5895 5897 5899 5900 5901 5903 5905 5906 5907 5908 5909 5911 5911 5912 5913 5914 5915 5916 5917 5919 5920 5921 5923 5925 5925 5926 5927 5928
5801 5799 5798 5797 5796 5795 5794 5793 5792 5790 5790 5789 5788 5788 5788 5789 5790 5791 5792 5794 5796 5798 5799 5801 5803 5805 5808 5810 5813 5816 5818 5821 5823 5826 5828 5830 5833 5835 5838 5841 5844 5848 5850 5852 5855 5858 5862 5866 5869 5871 5873 5877 5880 5882 5883 5884 5885 5887 5891 5892 5893 5895 5898 5899 5900 5902 5904 5905 5906 5907 5909 5910 5911 5912 5913 5914 5914 5915 5916 5917 5918 5920 5922 5924 5925 5926 5927 5927
5797 5796 5794 5793 5792 5792 5791 5790 5789 5787 5786 5785 5785 5784 5784 5785 5786 5787 5788 5790 5792 5794 5795 5797 5798 5800 5803 5806 5810 5813 5815 5817 5820 5822 5825 5827 5829 5832 5835 5838 5841 5844 5846 5849 5852 5856 5860 5865 5867 5868 5870 5874 5877 5880 5881 5882 5884 5886 5889 5889 5890 5893 5897 5899 5900 5900 5901 5903 5905 5907 5908 5908 5910 5911 5912 5913 5913 5914 5915 5916 5918 5920 5922 5923 5924 5925 5926 5927
5794 5793 5791 5790 5789 5789 5788 5787 5786 5784 5782 5781 5781 5781 5781 5781 5782 5783 5784 5786 5788 5790 5791 5793 5795 5797 5799 5802 5806 5808 5811 5814 5817 5819 5821 5824 5826 5829 5832 5834 5837 5840 5844 5847 5849 5853 5858 5862 5864 5865 5868 5871 5874 5877 5879 5880 5883 5886 5887 5887 5889 5893 5895 5898 5899 5899 5900 5902 5904 5905 5907 5907 5908 5910 5911 5912 5913 5913 5914 5916 5918 5920 5922 5922 5924 5925 5926 5927
5791 5790 5789 5788 5787 5786 5785 5784 5783 5781 5779 5778 5777 5777 5777 5777 5778 5779 5781 5782 5783 5786 5788 5789 5791 5794 5796 5799 5801 5803 5807 5811 5814 5816 5818 5820 5823 5826 5829 5831 5834 5837 5841 5844 5846 5850 5854 5857 5859 5862 5865 5868 5871 5875 5877 5879 5883 5885 5886 5887 5889 5892 5893 5895 5896 5898 5901 5902 5903 5904 5905 5906 5907 5908 5910 5911 5913 5913 5914 5916 5917 5919 5920 5922 5924 5925 5925 5926
5789 5788 5787 5785 5784 5783 5782 5781 5780 5778 5776 5775 5774 5774 5774 5774 5774 5775 5777 5778 5780 5782 5784 5786 5788 5791 5793 5795 5796 5800 5804 5807 5810 5812 5814 5816 5820 5823 5826 5828 5831 5834 5837 5840 5843 5847 5851 5853 5856 5859 5861 5865 5868 5872 5875 5878 5881 5884 5886 5887 5889 5890 5892 5893 5895 5898 5901 5901 5901 5902 5903 5904 5906 5907 5908 5910 5912 5913 5914 5915 5917 5918 5919 5921 5923 5924 5924 5926
5787 5786 5785 5783 5782 5781 5780 5778 5777 5776 5774 5772 5771 5771 5771 5771 5772 5773 5775 5776 5778 5780 5781 5783 5785 5788 5789 5791 5794 5797 5799 5802 5806 5809 5810 5813 5816 5819 5823 5825 5828 5830 5833 5835 5839 5844 5848 5850 5853 5856 5858 5861 5865 5870 5874 5876 5878 5882 5885 5886 5887 5889 5890 5891 5894 5897 5898 5899 5900 5900 5901 5903 5905 5906 5907 5909 5911 5912 5913 5914 5916 5917 5919 5920 5922 5923 5924 5925
5785 5784 5783 5782 5781 5779 5778 5777 5775 5774 5772 5771 5770 5769 5769 5769 5769 5771 5773 5775 5777 5778 5779 5781 5783 5785 5786 5789 5792 5794 5795 5798 5802 5805 5807 5810 5812 5816 5820 5822 5824 5826 5828 5831 5836 5840 5845 5848 5850 5853 5856 5859 5863 5868 5872 5874 5877 5881 5884 5884 5884 5886 5888 5889 5893 5895 5895 5897 5898 5899 5900 5902 5903 5905 5907 5908 5909 5910 5912 5913 5914 5916 5918 5919 5921 5922 5923 5924
5783 5782 5781 5780 5779 5778 5777 5775 5774 5772 5771 5770 5769 5769 5768 5768 5768 5770 5772 5774 5775 5776 5778 5780 5781 5782 5784 5786 5788 5790 5792 5795 5798 5802 5804 5807 5809 5813 5816 5819 5821 5824 5826 5829 5833 5837 5841 5844 5847 5850 5853 5857 5861 5865 5868 5871 5876 5880 5881 5882 5883 5884 5886 5888 5891 5893 5893 5894 5896 5898 5900 5901 5902 5905 5906 5907 5908 5909 5910 5911 5913 5914 5916 5918 5919 5920 5922 5923
5781 5781 5780 5779 5778 5777 5776 5774 5773 5771 5769 5769 5769 5768 5768 5768 5768 5770 5772 5773 5774 5775 5777 5778 5779 5780 5782 5784 5785 5786 5789 5792 5795 5800 5802 5803 5806 5809 5812 5815 5818 5821 5824 5828 5831 5834 5837 5840 5843 5846 5850 5855 5859 5862 5866 5871 5876 5877 5878 5880 5881 5882 5884 5886 5889 5890 5890 5891 5894 5896 5898 5900 5901 5904 5905 5906 5907 5908 5909 5910 5911 5912 5914 5916 5918 5919 5921 5922
5779 5779 5778 5778 5777 5776 5775 5773 5772 5770 5768 5768 5769 5769 5768 5768 5769 5771 5771 5773 5774 5775 5776 5777 5778 5779 5781 5783 5784 5785 5787 5790 5793 5797 5799 5801 5803 5806 5809 5812 5815 5819 5822 5826 5830 5833 5835 5837 5839 5842 5847 5851 5855 5858 5863 5868 5872 5875 5876 5878 5878 5880 5883 5884 5885 5886 5886 5888 5891 5894 5896 5898 5900 5903 5904 5905 5906 5907 5908 5909 5910 5911 5913 5915 5917 5918 5919 5921
5778 5778 5777 5777 5776 5775 5774 5772 5771 5769 5768 5768 5769 5769 5769 5769 5770 5770 5771 5772 5774 5775 5776 5777 5777 5778 5780 5781 5783 5784 5787 5788 5790 5794 5797 5799 5801 5804 5807 5809 5813 5817 5821 5824 5828 5830 5833 5835 5838 5840 5843 5847 5851 5855 5858 5862 5867 5871 5873 5874 5876 5878 5880 5881 5882 5883 5883 5886 5890 5892 5893 5895 5898 5901 5902 5903 5905 5906 5907 5908 5909 5910 5912 5914 5915 5917 5918 5920
5777 5777 5776 5776 5775 5774 5774 5773 5771 5769 5768 5768 5769 5769 5769 5769 5770 5771 5771 5772 5773 5774 5774 5775 5776 5777 5778 5780 5781 5783 5785 5787 5789 5791 5794 5797 5799 5802 5805 5807 5811 5815 5818 5821 5824 5827 5831 5833 5835 5838 5840 5843 5848 5852 5855 5858 5863 5867 5869 5871 5873 5875 5877 5879 5880 5881 5883 5887 5889 5890 5891 5893 5896 5899 5900 5902 5904 5905 5906 5907 5908 5909 5911 5913 5914 5916 5917 5918
5776 5776 5775 5775 5774 5774 5774 5773 5771 5769 5769 5769 5769 5770 5770 5770 5771 5772 5772 5772 5772 5772 5772 5774 5775 5776 5778 5779 5781 5783 5784 5786 5788 5790 5793 5796 5799 5801 5803 5805 5809 5812 5814 5818 5821 5824 5827 5830 5833 5836 5838 5841 5846 5849 5853 5856 5859 5863 5865 5867 5870 5872 5874 5877 5878 5880 5884 5887 5887 5887 5888 5890 5893 5896 5899 5901 5901 5902 5903 5904 5907 5909 5910 5912 5913 5915 5916 5916
5775 5775 5775 5774 5774 5773 5773 5773 5771 5770 5769 5770 5770 5771 5771 5770 5771 5772 5773 5773 5772 5772 5773 5774 5775 5776 5777 5780 5781 5783 5785 5787 5788 5790 5793 5796 5798 5799 5801 5804 5807 5810 5812 5815 5818 5821 5824 5827 5830 5834 5837 5840 5844 5847 5850 5853 5857 5860 5861 5864 5867 5870 5873 5875 5876 5879 5884 5886 5885 5884 5885 5887 5890 5894 5897 5899 5900 5900 5901 5903 5906 5908 5909 5911 5912 5914 5914 5915
5775 5774 5774 5774 5773 5773 5773 5772 5771 5770 5770 5770 5771 5772 5771 5771 5771 5772 5773 5773 5772 5773 5774 5774 5775 5775 5777 5780 5782 5782 5785 5787 5789 5791 5793 5794 5795 5795 5797 5799 5803 5806 5809 5812 5815 5819 5822 5825 5827 5831 5835 5838 5842 5844 5848 5850 5853 5856 5859 5862 5866 5868 5871 5873 5875 5878 5883 5884 5882 5881 5883 5886 5889 5892 5894 5897 5899 5900 5902 5904 5905 5907 5908 5910 5911 5912 5913 5914
5775 5774 5773 5773 5773 5773 5773 5772 5771 5771 5771 5771 5771 5772 5772 5772 5771 5772 5772 5772 5771 5772 5773 5775 5775 5775 5777 5779 5780 5780 5783 5787 5789 5790 5791 5791 5792 5792 5793 5795 5799 5804 5808 5811 5814 5817 5821 5824 5826 5829 5832 5835 5839 5843 5846 5849 5851 5854 5858 5862 5865 5867 5868 5870 5872 5875 5879 5880 5879 5879 5881 5884 5887 5890 5892 5895 5897 5899 5901 5903 5904 5906 5907 5908 5909 5910 5912 5913
5774 5774 5773 5773 5773 5773 5773 5772 5771 5771 5771 5771 5772 5771 5771 5771 5771 5771 5771 5771 5771 5772 5773 5774 5775 5776 5777 5779 5779 5780 5782 5785 5786 5787 5787 5788 5789 5790 5792 5794 5798 5803 5806 5809 5812 5815 5820 5824 5825 5827 5830 5832 5836 5840 5843 5846 5848 5852 5856 5859 5862 5864 5866 5868 5870 5872 5875 5876 5876 5877 5879 5881 5883 5887 5890 5893 5895 5896 5897 5899 5902 5904 5905 5906 5907 5908 5910 5912
5774 5774 5773 5773 5773 5773 5773 5772 5771 5771 5771 5772 5771 5771 5771 5770 5770 5770 5770 5770 5771 5772 5773 5774 5775 5776 5777 5778 5779 5779 5779 5781 5782 5782 5784 5786 5786 5788 5791 5794 5798 5802 5804 5807 5811 5815 5819 5822 5824 5826 5828 5830 5834 5837 5839 5842 5845 5850 5854 5856 5858 5861 5863 5865 5867 5869 5871 5873 5873 5874 5876 5878 5881 5886 5888 5891 5893 5894 5893 5894 5896 5899 5901 5903 5906 5907 5909 5910
5774 5775 5774 5774 5774 5774 5773 5772 5771 5771 5772 5772 5771 5771 5770 5770 5770 5769 5769 5769 5771 5771 5772 5773 5774 5776 5777 5777 5777 5778 5778 5779 5779 5780 5782 5785 5786 5788 5791 5794 5798 5801 5803 5806 5810 5814 5817 5821 5821 5823 5826 5829 5832 5836 5838 5840 5843 5847 5851 5853 5855 5858 5859 5861 5864 5867 5868 5869 5870 5872 5874 5876 5880 5883 5886 5889 5891 5891 5890 5889 5890 5894 5898 5901 5903 5905 5907 5909
5774 5775 5775 5775 5775 5774 5773 5772 5771 5771 5772 5772 5771 5771 5770 5770 5770 5769 5768 5769 5770 5770 5770 5771 5773 5774 5776 5776 5776 5778 5779 5779 5779 5782 5784 5786 5788 5790 5791 5793 5797 5799 5801 5805 5809 5812 5815 5818 5818 5819 5823 5827 5830 5833 5837 5839 5841 5844 5847 5850 5853 5855 5857 5859 5862 5863 5865 5866 5867 5869 5872 5873 5876 5879 5881 5884 5885 5885 5885 5888 5889 5891 5895 5898 5900 5903 5905 5907
5774 5775 5775 5775 5775 5774 5772 5772 5772 5771 5772 5771 5771 5771 5770 5770 5769 5769 5768 5768 5769 5770 5770 5771 5772 5773 5775 5776 5776 5778 5779 5778 5779 5783 5785 5786 5788 5789 5791 5793 5795 5797 5800 5804 5807 5810 5812 5815 5816 5817 5820 5824 5828 5832 5834 5836 5839 5841 5844 5846 5848 5852 5854 5856 5858 5860 5862 5863 5864 5866 5869 5870 5872 5875 5877 5879 5880 5880 5881 5886 5889 5889 5892 5895 5898 5900 5902 5904
5775 5775 5774 5774 5774 5773 5772 5772 5772 5771 5771 5771 5771 5771 5770 5769 5768 5768 5768 5768 5768 5769 5770 5770 5771 5772 5774 5775 5776 5777 5778 5778 5779 5781 5783 5785 5786 5788 5790 5792 5794 5796 5800 5802 5805 5808 5811 5813 5814 5816 5819 5822 5827 5830 5832 5834 5835 5838 5841 5842 5844 5847 5849 5851 5854 5857 5859 5860 5861 5863 5865 5867 5869 5871 5873 5875 5877 5878 5879 5882 5885 5886 5889 5892 5895 5897 5900 5901
5775 5775 5774 5774 5774 5773 5772 5772 5772 5771 5771 5771 5770 5770 5769 5769 5768 5768 5768 5767 5768 5769 5769 5770 5771 5771 5772 5774 5775 5776 5777 5778 5779 5780 5782 5783 5785 5787 5789 5791 5792 5794 5797 5800 5803 5806 5809 5811 5813 5816 5818 5821 5825 5828 5829 5831 5832 5835 5838 5839 5840 5842 5844 5847 5850 5853 5856 5857 5858 5860 5862 5864 5866 5867 5869 5872 5874 5875 5878 5880 5881 5882 5885 5889 5892 5895 5897 5899
5775 5775 5775 5774 5774 5773 5773 5772 5771 5771 5771 5771 5770 5770 5769 5769 5768 5768 5768 5767 5767 5768 5769 5770 5770 5771 5772 5772 5773 5775 5776 5777 5778 5780 5781 5782 5784 5786 5788 5788 5790 5792 5794 5798 5802 5804 5807 5809 5811 5815 5816 5818 5821 5823 5825 5827 5829 5831 5834 5835 5837 5839 5841 5844 5846 5849 5851 5853 5855 5858 5859 5861 5863 5864 5866 5869 5871 5873 5876 5878 5878 5879 5882 5886 5890 5892 5894 5896
5775 5775 5775 5775 5775 5774 5773 5772 5772 5772 5771 5771 5770 5770 5769 5769 5768 5768 5768 5767 5767 5767 5768 5769 5770 5771 5771 5771 5773 5774 5776 5776 5777 5779 5780 5780 5782 5784 5785 5786 5787 5789 5793 5797 5799 5802 5805 5807 5810 5812 5813 5814 5817 5820 5823 5824 5826 5828 5830 5833 5836 5837 5839 5841 5843 5844 5847 5850 5852 5854 5856 5858 5861 5862 5864 5867 5870 5872 5874 5877 5877 5878 5880 5883 5887 5890 5891 5893
5775 5775 5775 5775 5775 5774 5773 5772 5772 5772 5772 5771 5771 5770 5769 5769 5769 5768 5768 5767 5767 5768 5768 5769 5770 5770 5771 5772 5773 5775 5775 5776 5777 5779 5779 5780 5780 5782 5783 5784 5786 5788 5792 5795 5797 5800 5802 5805 5808 5810 5810 5812 5814 5817 5820 5822 5824 5826 5828 5830 5833 5834 5836 5838 5839 5841 5844 5846 5848 5850 5853 5856 5858 5860 5862 5865 5868 5870 5873 5875 5875 5875 5878 5880 5883 5887 5889 5890
5774 5774 5774 5774 5774 5773 5772 5772 5772 5772 5772 5771 5771 5770 5770 5769 5769 5768 5768 5768 5768 5768 5768 5768 5769 5770 5771 5772 5773 5774 5775 5776 5777 5778 5779 5779 5780 5781 5781 5783 5785 5787 5790 5792 5795 5797 5800 5802 5805 5807 5808 5810 5812 5814 5817 5821 5824 5825 5826 5827 5829 5830 5832 5833 5836 5838 5841 5843 5845 5847 5851 5853 5855 5857 5859 5862 5865 5868 5872 5874 5873 5873 5876 5878 5880 5883 5886 5887
5774 5774 5774 5774 5773 5773 5772 5772 5772 5772 5772 5771 5771 5771 5770 5769 5769 5768 5768 5768 5768 5768 5768 5769 5769 5769 5770 5772 5773 5774 5774 5775 5776 5777 5778 5779 5779 5780 5781 5782 5783 5785 5787 5789 5792 5794 5797 5799 5802 5804 5805 5807 5809 5812 5816 5819 5821 5821 5822 5825 5826 5827 5828 5830 5832 5835 5838 5841 5842 5846 5849 5850 5851 5854 5856 5858 5862 5866 5870 5872 5871 5871 5874 5876 5878 5880 5882 5884
5774 5774 5774 5773 5773 5772 5772 5772 5773 5772 5772 5771 5771 5771 5770 5770 5769 5769 5768 5767 5767 5768 5768 5769 5769 5769 5770 5771 5772 5773 5774 5775 5775 5776 5777 5778 5778 5779 5780 5781 5782 5783 5785 5787 5789 5792 5794 5797 5800 5802 5803 5805 5807 5811 5814 5816 5817 5817 5819 5822 5824 5826 5826 5827 5829 5832 5835 5838 5840 5843 5846 5847 5848 5850 5853 5855 5859 5864 5869 5871 5870 5870 5871 5874 5876 5878 5879 5882
5774 5774 5774 5773 5773 5772 5772 5772 5772 5772 5772 5772 5771 5771 5770 5770 5769 5769 5768 5767 5767 5767 5768 5769 5770 5770 5770 5770 5771 5772 5773 5774 5775 5775 5776 5777 5778 5779 5780 5781 5781 5782 5783 5785 5787 5790 5792 5795 5798 5800 5802 5804 5806 5808 5811 5814 5815 5816 5817 5820 5822 5824 5824 5824 5827 5830 5833 5835 5838 5840 5842 5844 5845 5847 5850 5852 5856 5861 5866 5869 5869 5868 5869 5872 5875 5876 5878 5879
5773 5773 5773 5773 5773 5773 5773 5772 5772 5772 5772 5772 5771 5771 5770 5770 5769 5769 5768 5768 5767 5767 5768 5769 5770 5770 5770 5770 5770 5771 5772 5773 5774 5774 5775 5776 5777 5778 5779 5779 5780 5781 5782 5784 5786 5788 5791 5793 5795 5798 5800 5801 5802 5804 5807 5811 5814 5815 5816 5819 5821 5823 5823 5823 5826 5829 5830 5833 5835 5837 5839 5841 5842 5844 5846 5849 5853 5858 5862 5865 5867 5867 5867 5870 5872 5874 5876 5877